Location: Unspecified
(0.0000°N, 0.0000°E)
Time: 10:12:03
(UTC+00:00)

Vanguard 1 - Pass Details

Date: 10 February 2018
Orbit: 650 x 3833 km, 34.2° (Epoch: 23 February)

Event Time Altitude Azimuth Distance (km) Brightness Sun altitude
Exits shadow 05:42:07 - 257° (WSW) 5,813 13.5 -7.8°
Reaches altitude 10° 05:46:04 10° 245° (WSW) 5,373 13.4 -6.8°
Maximum altitude 05:59:18 25° 196° (SSW) 5,197 13.7 -3.6°
Drops below altitude 10° 06:16:35 10° 147° (SSE) 6,941 15.2 0.6°
Sets 06:24:08 0° 135° (SE) 7,908 15.9 2.4°
